Minot AFB, ND

5:32 AM CST on November 22, 2019 (GMT -0600)
Minot Air Force Base

Weather History for KMIB - September, 2019

Change the Weather History Date:

Tuesday, September 17, 2019

  Actual Average Record
Temperature  
Mean Temperature 73 °F -  
Max Temperature 87 °F 66 °F 87 °F (2000)
Min Temperature 60 °F 42 °F 33 °F (2010)
Cooling Degree Days 8    
Growing Degree Days 23 (Base 50)    
Moisture  
Dew Point 64 °F    
Average Humidity 77    
Maximum Humidity 100    
Minimum Humidity 50    
Precipitation  
Precipitation 0.00 in - - ()
Sea Level Pressure  
Sea Level Pressure 29.54 in    
Wind  
Wind Speed 8 mph (SSE)    
Max Wind Speed 15 mph    
Max Gust Speed -    
Visibility 9 miles    
Events      
Averages and records for this station are not official NWS values.
T = Trace of Precipitation, MM = Missing Value Source: NWS Daily Summary

Daily Weather History Graph

Daily Weather History Graph

Search for Another Location

Airport or City:

Astronomy

Sep. 17, 2019 Rise Set
Actual Time 7:24 AM CDT 7:54 PM CDT
Civil Twilight 6:53 AM CDT 8:25 PM CDT
Nautical Twilight 6:16 AM CDT 9:02 PM CDT
Astronomical Twilight 5:37 AM CDT 9:41 PM CDT
Moon 9:43 PM CDT (9/17) 10:43 AM CDT (9/17)
Length of Visible Light 13h 32m
Length of Day
12h 29m
Waning Gibbous, 89% of the Moon is Illuminated
Sep 17
Waning Gibbous
Sep 21
Last Quarter
Sep 28
New
Oct 5
First Quarter
Oct 13
Full

Hourly Weather History & Observations

Time (CDT) Temp. Heat Index Dew Point Humidity Pressure Visibility Wind Dir Wind Speed Gust Speed Precip Events Conditions
12:56 AM 66.6 °F - 63.5 °F 90% 29.61 in 10.0 mi SE 6.9 mph - N/A   Clear
1:56 AM 64.9 °F - 63.1 °F 94% 29.61 in 10.0 mi SSE 5.8 mph - N/A   Clear
2:56 AM 63.7 °F - 62.8 °F 97% 29.60 in 10.0 mi SE 5.8 mph - N/A   Clear
3:56 AM 62.2 °F - 61.3 °F 97% 29.60 in 8.0 mi ESE 5.8 mph - N/A   Clear
4:56 AM 61.2 °F - 60.6 °F 98% 29.58 in 6.0 mi SE 6.9 mph - N/A   Clear
5:56 AM 60.4 °F - 60.1 °F 99% 29.58 in 5.0 mi SE 6.9 mph - N/A   Clear
6:56 AM 61.5 °F - 61.2 °F 99% 29.59 in 6.0 mi SE 6.9 mph - N/A   Clear
7:56 AM 60.6 °F - 60.3 °F 99% 29.59 in 2.8 mi SE 6.9 mph - N/A   Clear
8:06 AM 60.8 °F - 60.8 °F 100% 29.58 in 3.0 mi SE 5.8 mph - N/A   Clear
8:56 AM 65.3 °F - 64.9 °F 99% 29.58 in 6.0 mi SE 6.9 mph - N/A   Clear
9:56 AM 70.5 °F - 67.5 °F 90% 29.58 in 10.0 mi SSE 8.1 mph - N/A   Clear
10:56 AM 74.5 °F - 66.4 °F 76% 29.57 in 10.0 mi SE 11.5 mph - N/A   Clear
11:56 AM 77.5 °F - 66.6 °F 69% 29.56 in 10.0 mi SSE 12.7 mph - N/A   Clear
12:56 PM 80.6 °F 82.9 °F 66.7 °F 63% 29.55 in 10.0 mi SE 11.5 mph - N/A   Clear
1:56 PM 83.8 °F 86.7 °F 67.5 °F 58% 29.52 in 10.0 mi SSE 13.8 mph - N/A   Clear
2:56 PM 86.2 °F 88.4 °F 66.4 °F 51% 29.51 in 10.0 mi SSE 11.5 mph - N/A   Clear
3:56 PM 86.5 °F 88.7 °F 65.7 °F 50% 29.50 in 10.0 mi SSE 11.5 mph - N/A   Clear
4:56 PM 85.8 °F 88.2 °F 66.6 °F 52% 29.49 in 10.0 mi SSE 15.0 mph - N/A   Clear
5:56 PM 84.2 °F 86.6 °F 66.2 °F 55% 29.49 in 10.0 mi South 9.2 mph - N/A   Partly Cloudy
6:56 PM 79.9 °F - 67.5 °F 66% 29.51 in 10.0 mi South 6.9 mph - N/A   Clear
7:56 PM 76.5 °F - 67.1 °F 73% 29.50 in 10.0 mi SSE 6.9 mph - N/A   Clear
8:56 PM 74.3 °F - 66.6 °F 77% 29.50 in 10.0 mi SSE 8.1 mph - N/A   Partly Cloudy
9:56 PM 73.9 °F - 66.6 °F 78% 29.51 in 10.0 mi South 8.1 mph - N/A   Scattered Clouds
10:56 PM 75.6 °F - 60.6 °F 60% 29.49 in 10.0 mi SW 13.8 mph - N/A   Partly Cloudy
11:05 PM 75.2 °F - 60.8 °F 61% 29.49 in 10.0 mi WSW 15.0 mph - N/A   Light Drizzle
11:14 PM 75.2 °F - 59.0 °F 57% 29.48 in 10.0 mi WSW 10.4 mph - N/A   Partly Cloudy
11:56 PM 72.0 °F - 58.3 °F 62% 29.48 in 10.0 mi WSW 8.1 mph - 0.00 in   Scattered Clouds